KLM73D EHAM-EPWA

Flight info

Callsign KLM73D
Flight time 1h 47m
Altitude 39000
Route ARNEM L620 SUVOX Z718 OSNAD DCT HLZ DCT SUBIX DCT OBOKU DCT DOSIX DCT BIMPA
Aircraft B738/M-SDE2E3FGHIRWXY/LB1

Departure

Time 2026-04-30 07:53
Airport Amsterdam Airport Schiphol (EHAM)

Arrival

Time 2026-04-30 09:41
Airport Warsaw Chopin Airport (EPWA)
Time Latitude Longitude Altitude Speed Heading
2026-04-30 07:12 52.30895 4.77367 -2 ft 0 kts
2026-04-30 07:41 52.30893 4.77366 -2 ft 3 kts
2026-04-30 07:41 52.30867 4.77368 -2 ft 4 kts 353°
2026-04-30 07:41 52.30848 4.77368 -2 ft 3 kts 60°
2026-04-30 07:42 52.30842 4.77338 -2 ft 1 kts 79°
2026-04-30 07:42 52.30842 4.77337 -2 ft 0 kts 79°
2026-04-30 07:45 52.30842 4.77338 -2 ft 0 kts 79°
2026-04-30 07:45 52.30842 4.77343 -2 ft 1 kts 87°
2026-04-30 07:45 52.30839 4.77366 -2 ft 3 kts 96°
2026-04-30 07:45 52.30837 4.77413 -2 ft 5 kts 95°
2026-04-30 07:46 52.30834 4.77479 -2 ft 7 kts 92°
2026-04-30 07:46 52.30839 4.77566 -2 ft 8 kts 63°
2026-04-30 07:46 52.30894 4.77608 -2 ft 10 kts
2026-04-30 07:46 52.30971 4.77617 -2 ft 12 kts
2026-04-30 07:47 52.31060 4.77625 -2 ft 14 kts
2026-04-30 07:47 52.31162 4.77634 -2 ft 15 kts
2026-04-30 07:47 52.31275 4.77643 -2 ft 17 kts
2026-04-30 07:47 52.31398 4.77655 -2 ft 18 kts 358°
2026-04-30 07:48 52.31512 4.77557 -2 ft 20 kts 316°
2026-04-30 07:48 52.31576 4.77358 -2 ft 21 kts 273°
2026-04-30 07:48 52.31570 4.77127 -2 ft 20 kts 267°
2026-04-30 07:48 52.31562 4.76896 -2 ft 20 kts 266°
2026-04-30 07:49 52.31554 4.76687 -2 ft 19 kts 267°
2026-04-30 07:49 52.31547 4.76469 -1 ft 20 kts 266°
2026-04-30 07:49 52.31538 4.76239 -2 ft 20 kts 266°
2026-04-30 07:49 52.31531 4.76017 -1 ft 20 kts 266°
2026-04-30 07:50 52.31523 4.75789 -2 ft 20 kts 267°
2026-04-30 07:50 52.31515 4.75560 -2 ft 20 kts 267°
2026-04-30 07:50 52.31508 4.75337 -2 ft 20 kts 267°
2026-04-30 07:50 52.31501 4.75118 -2 ft 18 kts 266°
2026-04-30 07:51 52.31493 4.74905 -2 ft 17 kts 267°
2026-04-30 07:51 52.31492 4.74725 -2 ft 14 kts 285°
2026-04-30 07:51 52.31573 4.74661 -2 ft 15 kts 358°
2026-04-30 07:51 52.31657 4.74713 0 ft 11 kts 57°
2026-04-30 07:52 52.31669 4.74814 -2 ft 0 kts 88°
2026-04-30 07:52 52.31671 4.74875 -3 ft 21 kts 88°
2026-04-30 07:52 52.31691 4.75420 -4 ft 77 kts 87°
2026-04-30 07:53 52.31729 4.76602 -2 ft 129 kts 87°
2026-04-30 07:53 52.31785 4.78256 213 ft 153 kts 88°
2026-04-30 07:53 52.31820 4.79464 447 ft 164 kts 88°
2026-04-30 07:53 52.31868 4.81407 874 ft 183 kts 88°
2026-04-30 07:54 52.31931 4.83611 1278 ft 204 kts 88°
2026-04-30 07:54 52.31991 4.85879 1626 ft 198 kts 91°
2026-04-30 07:54 52.31701 4.88137 1994 ft 202 kts 112°
2026-04-30 07:54 52.31128 4.90161 2365 ft 200 kts 113°
2026-04-30 07:55 52.30546 4.92375 2724 ft 217 kts 112°
2026-04-30 07:55 52.29936 4.94748 3196 ft 230 kts 112°
2026-04-30 07:55 52.29365 4.97214 4309 ft 234 kts 107°
2026-04-30 07:55 52.28915 4.99805 5372 ft 240 kts 106°
2026-04-30 07:56 52.28467 5.02462 6360 ft 246 kts 106°
2026-04-30 07:56 52.28004 5.05181 7316 ft 252 kts 106°
2026-04-30 07:56 52.27521 5.07965 8288 ft 256 kts 106°
2026-04-30 07:56 52.27027 5.10791 9233 ft 261 kts 106°
2026-04-30 07:57 52.26522 5.13665 10187 ft 266 kts 105°
2026-04-30 07:57 52.26004 5.16616 10964 ft 278 kts 104°
2026-04-30 07:57 52.25457 5.19742 11522 ft 295 kts 104°
2026-04-30 07:57 52.24875 5.23068 12048 ft 313 kts 104°
2026-04-30 07:58 52.24356 5.26575 12759 ft 321 kts 96°
2026-04-30 07:58 52.24192 5.30240 13597 ft 327 kts 92°
2026-04-30 07:58 52.24027 5.33961 14440 ft 332 kts 93°
2026-04-30 07:58 52.23829 5.37754 15270 ft 338 kts 93°
2026-04-30 07:59 52.23618 5.41609 16086 ft 344 kts 93°
2026-04-30 07:59 52.23410 5.45519 16899 ft 349 kts 92°
2026-04-30 07:59 52.23207 5.49493 17688 ft 354 kts 92°
2026-04-30 08:00 52.21981 5.57404 19196 ft 370 kts 109°
2026-04-30 08:00 52.20983 5.61294 19919 ft 374 kts 109°
2026-04-30 08:00 52.20010 5.65255 20632 ft 379 kts 108°
2026-04-30 08:00 52.19048 5.69290 21328 ft 383 kts 108°
2026-04-30 08:01 52.18081 5.73345 22008 ft 387 kts 108°
2026-04-30 08:01 52.17087 5.77451 22662 ft 391 kts 109°
2026-04-30 08:01 52.16072 5.81583 23287 ft 395 kts 109°
2026-04-30 08:01 52.15043 5.85749 23902 ft 398 kts 109°
2026-04-30 08:02 52.12981 5.94134 25050 ft 405 kts 109°
2026-04-30 08:02 52.11933 5.98399 25604 ft 407 kts 109°
2026-04-30 08:03 52.09836 6.07020 26644 ft 411 kts 105°
2026-04-30 08:03 52.08782 6.16134 27604 ft 412 kts 96°
2026-04-30 08:03 52.08321 6.20742 28051 ft 414 kts 97°
2026-04-30 08:04 52.07827 6.25377 28472 ft 417 kts 97°
2026-04-30 08:04 52.07323 6.30025 28878 ft 419 kts 97°
2026-04-30 08:04 52.06823 6.34702 29279 ft 421 kts 97°
2026-04-30 08:04 52.06330 6.39394 29655 ft 422 kts 97°
2026-04-30 08:05 52.05837 6.44113 30015 ft 424 kts 97°
2026-04-30 08:05 52.05337 6.48854 30357 ft 426 kts 97°
2026-04-30 08:05 52.04829 6.53608 30695 ft 428 kts 97°
2026-04-30 08:05 52.04323 6.58310 31040 ft 428 kts 97°
2026-04-30 08:06 52.03810 6.63053 31550 ft 425 kts 97°
2026-04-30 08:06 52.03298 6.67776 32017 ft 423 kts 97°
2026-04-30 08:06 52.02788 6.72473 32493 ft 421 kts 97°
2026-04-30 08:06 52.02274 6.77136 32949 ft 419 kts 98°
2026-04-30 08:07 52.01651 6.81754 33382 ft 418 kts 101°
2026-04-30 08:07 52.00896 6.86315 33812 ft 417 kts 102°
2026-04-30 08:07 52.00099 6.90830 34230 ft 415 kts 102°
2026-04-30 08:07 51.99337 6.95342 34622 ft 414 kts 101°
2026-04-30 08:08 51.98630 6.99845 35026 ft 411 kts 100°
2026-04-30 08:08 51.97947 7.04349 35361 ft 411 kts 99°
2026-04-30 08:08 51.97493 7.08907 35658 ft 407 kts 89°
2026-04-30 08:08 51.97623 7.13396 35973 ft 403 kts 78°
2026-04-30 08:09 51.98317 7.17764 36273 ft 400 kts 69°
2026-04-30 08:09 51.99229 7.22097 36512 ft 401 kts 70°
2026-04-30 08:09 52.00082 7.26360 36812 ft 401 kts 70°
2026-04-30 08:09 52.00919 7.30661 37198 ft 398 kts 70°
2026-04-30 08:10 52.01756 7.34931 37572 ft 396 kts 70°
2026-04-30 08:10 52.02602 7.39182 37859 ft 396 kts 69°
2026-04-30 08:10 52.03455 7.43426 38106 ft 395 kts 69°
2026-04-30 08:10 52.04307 7.47676 38342 ft 396 kts 69°
2026-04-30 08:11 52.05150 7.51923 38568 ft 396 kts 69°
2026-04-30 08:11 52.05991 7.56191 38773 ft 397 kts 69°
2026-04-30 08:11 52.06833 7.60470 38972 ft 397 kts 69°
2026-04-30 08:11 52.07675 7.64750 39202 ft 398 kts 69°
2026-04-30 08:12 52.08519 7.69040 39389 ft 399 kts 69°
2026-04-30 08:12 52.09363 7.73342 39494 ft 402 kts 69°
2026-04-30 08:12 52.10218 7.77709 39498 ft 406 kts 69°
2026-04-30 08:13 52.11906 7.86385 39496 ft 402 kts 69°
2026-04-30 08:13 52.13585 7.95042 39497 ft 400 kts 69°
2026-04-30 08:14 52.15260 8.03700 39497 ft 401 kts 69°
2026-04-30 08:14 52.16929 8.12386 39502 ft 402 kts 69°
2026-04-30 08:15 52.18594 8.21099 39510 ft 403 kts 69°
2026-04-30 08:15 52.20138 8.29882 39506 ft 406 kts 77°
2026-04-30 08:16 52.20787 8.39057 39517 ft 408 kts 79°
2026-04-30 08:16 52.21488 8.48226 39510 ft 407 kts 78°
2026-04-30 08:17 52.22175 8.57361 39518 ft 408 kts 79°
2026-04-30 08:17 52.22836 8.66554 39523 ft 409 kts 79°
2026-04-30 08:18 52.23502 8.75768 39520 ft 409 kts 79°
2026-04-30 08:18 52.24162 8.84983 39519 ft 409 kts 79°
2026-04-30 08:19 52.24812 8.94197 39517 ft 408 kts 79°
2026-04-30 08:19 52.25456 9.03413 39529 ft 410 kts 79°
2026-04-30 08:20 52.26094 9.12665 39526 ft 410 kts 79°
2026-04-30 08:20 52.26724 9.21913 39528 ft 410 kts 79°
2026-04-30 08:21 52.27348 9.31163 39531 ft 410 kts 79°
2026-04-30 08:21 52.27966 9.40425 39532 ft 411 kts 79°
2026-04-30 08:22 52.28575 9.49687 39535 ft 410 kts 79°
2026-04-30 08:22 52.29178 9.58963 39546 ft 410 kts 79°
2026-04-30 08:23 52.29773 9.68228 39541 ft 410 kts 79°
2026-04-30 08:23 52.30360 9.77495 39544 ft 409 kts 79°
2026-04-30 08:24 52.30940 9.86765 39547 ft 411 kts 79°
2026-04-30 08:24 52.31512 9.95996 39548 ft 412 kts 79°
2026-04-30 08:25 52.32086 10.05378 39557 ft 417 kts 79°
2026-04-30 08:25 52.32658 10.14877 39545 ft 422 kts 79°
2026-04-30 08:26 52.33227 10.24476 39550 ft 425 kts 79°
2026-04-30 08:26 52.33788 10.34085 39547 ft 424 kts 79°
2026-04-30 08:27 52.34340 10.43662 39547 ft 422 kts 79°
2026-04-30 08:27 52.34886 10.53221 39542 ft 421 kts 79°
2026-04-30 08:28 52.35422 10.62766 39548 ft 422 kts 79°
2026-04-30 08:28 52.35948 10.72337 39548 ft 422 kts 79°
2026-04-30 08:29 52.36442 10.81875 39547 ft 424 kts 81°
2026-04-30 08:29 52.36624 10.91553 39547 ft 427 kts 84°
2026-04-30 08:30 52.36728 11.01252 39550 ft 425 kts 82°
2026-04-30 08:30 52.36940 11.10909 39550 ft 425 kts 82°
2026-04-30 08:31 52.37114 11.20588 39555 ft 426 kts 83°
2026-04-30 08:31 52.37258 11.30269 39549 ft 425 kts 83°
2026-04-30 08:32 52.37414 11.39946 39549 ft 425 kts 83°
2026-04-30 08:32 52.37561 11.49622 39551 ft 425 kts 83°
2026-04-30 08:33 52.37692 11.59298 39543 ft 425 kts 83°
2026-04-30 08:33 52.37819 11.68920 39550 ft 426 kts 83°
2026-04-30 08:34 52.37940 11.78614 39547 ft 425 kts 83°
2026-04-30 08:34 52.38051 11.88297 39548 ft 425 kts 83°
2026-04-30 08:35 52.38154 11.97978 39544 ft 425 kts 83°
2026-04-30 08:35 52.38251 12.07666 39548 ft 425 kts 83°
2026-04-30 08:36 52.38338 12.17337 39546 ft 425 kts 83°
2026-04-30 08:36 52.38419 12.26976 39548 ft 426 kts 83°
2026-04-30 08:37 52.38490 12.36670 39532 ft 426 kts 83°
2026-04-30 08:37 52.38555 12.46356 39529 ft 426 kts 83°
2026-04-30 08:38 52.38612 12.56045 39529 ft 426 kts 83°
2026-04-30 08:38 52.38659 12.65747 39526 ft 426 kts 83°
2026-04-30 08:39 52.38700 12.75467 39528 ft 427 kts 83°
2026-04-30 08:39 52.38733 12.85202 39532 ft 428 kts 84°
2026-04-30 08:40 52.38757 12.94955 39531 ft 428 kts 84°
2026-04-30 08:40 52.38773 13.04691 39530 ft 429 kts 84°
2026-04-30 08:41 52.38783 13.14463 39530 ft 429 kts 84°
2026-04-30 08:41 52.38784 13.24232 39526 ft 429 kts 84°
2026-04-30 08:42 52.38776 13.34011 39522 ft 430 kts 84°
2026-04-30 08:42 52.38760 13.43805 39520 ft 431 kts 84°
2026-04-30 08:43 52.38740 13.51939 39519 ft 430 kts 84°
2026-04-30 08:43 52.38705 13.63309 39519 ft 430 kts 84°
2026-04-30 08:44 52.38665 13.73108 39522 ft 430 kts 85°
2026-04-30 08:44 52.38626 13.81259 39522 ft 431 kts 85°
2026-04-30 08:45 52.38571 13.91068 39518 ft 431 kts 85°
2026-04-30 08:45 52.38508 14.00869 39519 ft 431 kts 85°
2026-04-30 08:46 52.38438 14.10690 39517 ft 432 kts 85°
2026-04-30 08:46 52.38359 14.20502 39519 ft 431 kts 85°
2026-04-30 08:47 52.38269 14.30314 39517 ft 431 kts 85°
2026-04-30 08:47 52.38175 14.40140 39519 ft 431 kts 85°
2026-04-30 08:48 52.38070 14.49956 39520 ft 431 kts 85°
2026-04-30 08:48 52.37955 14.59781 39522 ft 432 kts 85°
2026-04-30 08:49 52.37738 14.69605 39518 ft 433 kts 87°
2026-04-30 08:49 52.37466 14.79455 39519 ft 433 kts 86°
2026-04-30 08:50 52.37231 14.89291 39513 ft 433 kts 86°
2026-04-30 08:50 52.36982 14.99138 39515 ft 432 kts 86°
2026-04-30 08:51 52.36716 15.08902 39519 ft 432 kts 86°
2026-04-30 08:51 52.36447 15.18720 39519 ft 432 kts 86°
2026-04-30 08:52 52.36169 15.28555 39520 ft 433 kts 87°
2026-04-30 08:52 52.35880 15.38379 39517 ft 432 kts 87°
2026-04-30 08:53 52.35586 15.48217 39519 ft 433 kts 87°
2026-04-30 08:53 52.35280 15.58071 39522 ft 433 kts 87°
2026-04-30 08:54 52.34970 15.67908 39519 ft 432 kts 87°
2026-04-30 08:54 52.34649 15.77734 39524 ft 433 kts 87°
2026-04-30 08:55 52.34324 15.87512 39522 ft 434 kts 87°
2026-04-30 08:55 52.33988 15.97354 39519 ft 433 kts 88°
2026-04-30 08:56 52.33643 16.07193 39521 ft 434 kts 88°
2026-04-30 08:56 52.33288 16.17048 39518 ft 434 kts 88°
2026-04-30 08:57 52.32927 16.26913 39511 ft 434 kts 88°
2026-04-30 08:57 52.32555 16.36764 39510 ft 434 kts 88°
2026-04-30 08:58 52.32178 16.46610 39506 ft 434 kts 88°
2026-04-30 08:58 52.31794 16.56462 39501 ft 434 kts 88°
2026-04-30 08:59 52.31401 16.66253 39505 ft 435 kts 88°
2026-04-30 08:59 52.30997 16.76109 39500 ft 435 kts 88°
2026-04-30 09:00 52.30587 16.85997 39505 ft 436 kts 88°
2026-04-30 09:00 52.30162 16.95892 39503 ft 436 kts 88°
2026-04-30 09:01 52.29732 17.05777 39498 ft 437 kts 88°
2026-04-30 09:01 52.29297 17.15698 39494 ft 438 kts 89°
2026-04-30 09:02 52.28623 17.30529 39491 ft 438 kts 89°
2026-04-30 09:02 52.28162 17.40457 39491 ft 439 kts 89°
2026-04-30 09:03 52.27692 17.50409 39491 ft 439 kts 89°
2026-04-30 09:03 52.27214 17.60369 39494 ft 440 kts 89°
2026-04-30 09:04 52.26726 17.70356 39491 ft 440 kts 90°
2026-04-30 09:04 52.26228 17.80335 39492 ft 441 kts 90°
2026-04-30 09:05 52.25720 17.90320 39493 ft 442 kts 90°
2026-04-30 09:05 52.25300 18.00298 39486 ft 437 kts 83°
2026-04-30 09:06 52.26085 18.10036 39483 ft 434 kts 77°
2026-04-30 09:06 52.26873 18.19816 39478 ft 435 kts 78°
2026-04-30 09:07 52.27636 18.29544 39485 ft 433 kts 78°
2026-04-30 09:07 52.28036 18.34427 38800 ft 435 kts 78°
2026-04-30 09:07 52.28438 18.39318 38073 ft 432 kts 77°
2026-04-30 09:08 52.28825 18.44146 37392 ft 426 kts 77°
2026-04-30 09:08 52.29199 18.48900 36707 ft 419 kts 77°
2026-04-30 09:08 52.29564 18.53591 36027 ft 413 kts 76°
2026-04-30 09:08 52.29926 18.58222 35318 ft 407 kts 76°
2026-04-30 09:09 52.30285 18.62783 34591 ft 402 kts 76°
2026-04-30 09:09 52.30637 18.67289 33845 ft 397 kts 75°
2026-04-30 09:09 52.30978 18.71719 33334 ft 387 kts 75°
2026-04-30 09:09 52.31304 18.76021 32837 ft 377 kts 75°
2026-04-30 09:10 52.31623 18.80213 32353 ft 367 kts 75°
2026-04-30 09:10 52.31937 18.84311 31883 ft 358 kts 74°
2026-04-30 09:10 52.32245 18.88316 31430 ft 354 kts 75°
2026-04-30 09:10 52.32546 18.92243 30957 ft 352 kts 75°
2026-04-30 09:11 52.32846 18.96206 30485 ft 351 kts 75°
2026-04-30 09:11 52.33146 19.00204 30003 ft 349 kts 75°
2026-04-30 09:11 52.33433 19.04079 29534 ft 347 kts 75°
2026-04-30 09:11 52.33723 19.07990 29045 ft 346 kts 75°
2026-04-30 09:12 52.34011 19.11890 28567 ft 345 kts 75°
2026-04-30 09:12 52.34296 19.15785 28074 ft 345 kts 75°
2026-04-30 09:12 52.34582 19.19693 27580 ft 345 kts 75°
2026-04-30 09:12 52.34866 19.23595 27066 ft 347 kts 76°
2026-04-30 09:13 52.35099 19.27531 26545 ft 349 kts 78°
2026-04-30 09:13 52.35279 19.31507 26008 ft 351 kts 79°
2026-04-30 09:13 52.35445 19.35499 25470 ft 352 kts 79°
2026-04-30 09:13 52.35626 19.39490 24924 ft 353 kts 78°
2026-04-30 09:14 52.35825 19.43503 24378 ft 354 kts 78°
2026-04-30 09:14 52.36030 19.47523 23817 ft 355 kts 79°
2026-04-30 09:14 52.36230 19.51554 23249 ft 356 kts 79°
2026-04-30 09:14 52.36423 19.55598 22681 ft 356 kts 79°
2026-04-30 09:15 52.36605 19.59555 22103 ft 350 kts 79°
2026-04-30 09:15 52.36786 19.63494 21543 ft 343 kts 79°
2026-04-30 09:15 52.36963 19.67350 20984 ft 337 kts 80°
2026-04-30 09:15 52.37140 19.71145 20431 ft 332 kts 80°
2026-04-30 09:16 52.37318 19.74900 19882 ft 329 kts 79°
2026-04-30 09:16 52.37703 19.78537 19348 ft 320 kts 67°
2026-04-30 09:16 52.38537 19.81862 19146 ft 317 kts 62°
2026-04-30 09:16 52.39417 19.85307 18889 ft 334 kts 64°
2026-04-30 09:17 52.40263 19.88825 18599 ft 330 kts 65°
2026-04-30 09:17 52.41087 19.92312 18322 ft 327 kts 65°
2026-04-30 09:17 52.41916 19.95763 18054 ft 323 kts 64°
2026-04-30 09:17 52.42734 19.99110 17792 ft 320 kts 64°
2026-04-30 09:18 52.43562 20.02470 17528 ft 317 kts 64°
2026-04-30 09:18 52.44380 20.05807 17261 ft 314 kts 64°
2026-04-30 09:18 52.45185 20.09120 17004 ft 312 kts 64°
2026-04-30 09:18 52.45986 20.12423 16751 ft 311 kts 64°
2026-04-30 09:19 52.46788 20.15735 16494 ft 313 kts 64°
2026-04-30 09:19 52.47590 20.19050 16233 ft 313 kts 64°
2026-04-30 09:19 52.48391 20.22373 15970 ft 312 kts 64°
2026-04-30 09:19 52.49185 20.25677 15708 ft 309 kts 64°
2026-04-30 09:20 52.49971 20.28942 15483 ft 305 kts 64°
2026-04-30 09:20 52.50621 20.32225 15339 ft 303 kts 75°
2026-04-30 09:20 52.50539 20.35695 15192 ft 310 kts 97°
2026-04-30 09:20 52.49654 20.38965 14936 ft 318 kts 115°
2026-04-30 09:21 52.48485 20.42003 14673 ft 312 kts 114°
2026-04-30 09:21 52.47415 20.45057 14422 ft 305 kts 112°
2026-04-30 09:21 52.46405 20.48085 14187 ft 301 kts 111°
2026-04-30 09:21 52.45394 20.51089 13952 ft 300 kts 112°
2026-04-30 09:22 52.44365 20.54066 13710 ft 300 kts 113°
2026-04-30 09:22 52.43325 20.57018 13478 ft 299 kts 113°
2026-04-30 09:22 52.42285 20.59959 13245 ft 298 kts 114°
2026-04-30 09:22 52.41249 20.62898 13005 ft 298 kts 114°
2026-04-30 09:23 52.40221 20.65829 12771 ft 297 kts 114°
2026-04-30 09:23 52.39208 20.68718 12545 ft 296 kts 114°
2026-04-30 09:23 52.38184 20.71637 12282 ft 296 kts 114°
2026-04-30 09:23 52.37159 20.74545 11991 ft 293 kts 114°
2026-04-30 09:24 52.36138 20.77437 11700 ft 293 kts 115°
2026-04-30 09:24 52.35122 20.80311 11433 ft 292 kts 115°
2026-04-30 09:24 52.34106 20.83184 11158 ft 291 kts 115°
2026-04-30 09:24 52.33096 20.86038 10876 ft 290 kts 115°
2026-04-30 09:25 52.32089 20.88879 10596 ft 286 kts 115°
2026-04-30 09:25 52.31099 20.91659 10322 ft 281 kts 116°
2026-04-30 09:25 52.30123 20.94403 10074 ft 279 kts 116°
2026-04-30 09:25 52.29155 20.97128 9788 ft 276 kts 116°
2026-04-30 09:26 52.28193 20.99837 9538 ft 276 kts 116°
2026-04-30 09:26 52.27112 21.02431 9257 ft 279 kts 130°
2026-04-30 09:26 52.25552 21.04317 8994 ft 283 kts 151°
2026-04-30 09:26 52.23809 21.05685 8731 ft 281 kts 152°
2026-04-30 09:27 52.22080 21.07145 8457 ft 278 kts 150°
2026-04-30 09:27 52.20385 21.08644 8190 ft 276 kts 149°
2026-04-30 09:27 52.18698 21.10135 7929 ft 276 kts 150°
2026-04-30 09:27 52.17011 21.11604 7696 ft 273 kts 150°
2026-04-30 09:28 52.15357 21.13025 7590 ft 264 kts 150°
2026-04-30 09:28 52.13748 21.14411 7378 ft 260 kts 150°
2026-04-30 09:28 52.12162 21.15801 7127 ft 257 kts 150°
2026-04-30 09:28 52.10597 21.17179 6853 ft 256 kts 150°
2026-04-30 09:29 52.09011 21.18573 6422 ft 261 kts 150°
2026-04-30 09:29 52.07400 21.19983 6054 ft 264 kts 151°
2026-04-30 09:29 52.05783 21.21392 5752 ft 263 kts 151°
2026-04-30 09:29 52.04181 21.22787 5493 ft 260 kts 151°
2026-04-30 09:30 52.02597 21.24167 5243 ft 256 kts 151°
2026-04-30 09:30 52.01034 21.25530 5003 ft 254 kts 152°
2026-04-30 09:30 51.99492 21.26868 4883 ft 246 kts 152°
2026-04-30 09:30 51.97995 21.28155 4830 ft 242 kts 152°
2026-04-30 09:31 51.96508 21.29430 4757 ft 241 kts 152°
2026-04-30 09:31 51.95035 21.30696 4673 ft 239 kts 152°
2026-04-30 09:31 51.93565 21.31962 4597 ft 239 kts 152°
2026-04-30 09:31 51.92097 21.33222 4522 ft 239 kts 152°
2026-04-30 09:32 51.90601 21.34376 4426 ft 238 kts 163°
2026-04-30 09:32 51.88991 21.34364 4330 ft 232 kts 203°
2026-04-30 09:32 51.87781 21.32746 4267 ft 227 kts 240°
2026-04-30 09:32 51.87102 21.30454 4218 ft 227 kts 250°
2026-04-30 09:33 51.86515 21.28080 4141 ft 228 kts 249°
2026-04-30 09:33 51.85992 21.25669 4031 ft 225 kts 264°
2026-04-30 09:33 51.86265 21.23271 3940 ft 219 kts 304°
2026-04-30 09:33 51.87426 21.21772 3896 ft 216 kts 337°
2026-04-30 09:34 51.88366 21.21213 3853 ft 218 kts 339°
2026-04-30 09:34 51.89754 21.20189 3748 ft 219 kts 332°
2026-04-30 09:34 51.91071 21.18985 3698 ft 217 kts 330°
2026-04-30 09:34 51.92397 21.17782 3600 ft 218 kts 331°
2026-04-30 09:35 51.93725 21.16621 3542 ft 217 kts 332°
2026-04-30 09:35 51.95058 21.15466 3461 ft 216 kts 332°
2026-04-30 09:35 51.96329 21.14364 3409 ft 199 kts 332°
2026-04-30 09:35 51.97488 21.13360 3301 ft 179 kts 332°
2026-04-30 09:36 51.98535 21.12450 3244 ft 163 kts 332°
2026-04-30 09:36 51.99506 21.11606 3205 ft 157 kts 332°
2026-04-30 09:36 52.00472 21.10766 3186 ft 156 kts 331°
2026-04-30 09:36 52.01399 21.09962 3079 ft 145 kts 331°
2026-04-30 09:37 52.02274 21.09201 3093 ft 146 kts 331°
2026-04-30 09:37 52.03144 21.08445 3015 ft 140 kts 331°
2026-04-30 09:37 52.04006 21.07695 2820 ft 137 kts 330°
2026-04-30 09:37 52.04859 21.06952 2672 ft 143 kts 329°
2026-04-30 09:38 52.05745 21.06179 2493 ft 146 kts 329°
2026-04-30 09:38 52.06657 21.05383 2272 ft 151 kts 329°
2026-04-30 09:38 52.07582 21.04576 2048 ft 151 kts 330°
2026-04-30 09:38 52.08513 21.03763 1874 ft 153 kts 331°
2026-04-30 09:39 52.09455 21.02941 1653 ft 153 kts 332°
2026-04-30 09:39 52.10356 21.02154 1450 ft 147 kts 332°
2026-04-30 09:39 52.11238 21.01384 1276 ft 145 kts 333°
2026-04-30 09:39 52.12130 21.00605 1078 ft 141 kts 332°
2026-04-30 09:40 52.12993 20.99850 903 ft 142 kts 332°
2026-04-30 09:40 52.13873 20.99080 713 ft 145 kts 332°
2026-04-30 09:40 52.14762 20.98303 522 ft 144 kts 332°
2026-04-30 09:40 52.15637 20.97533 377 ft 141 kts 332°
2026-04-30 09:41 52.16394 20.96868 356 ft 86 kts 332°
2026-04-30 09:41 52.16725 20.96581 355 ft 32 kts 334°
2026-04-30 09:41 52.16876 20.96517 357 ft 21 kts 353°
2026-04-30 09:41 52.17015 20.96517 359 ft 11 kts
2026-04-30 09:42 52.17075 20.96544 352 ft 9 kts 41°
2026-04-30 09:42 52.17107 20.96623 359 ft 8 kts 59°
2026-04-30 09:42 52.17133 20.96709 355 ft 9 kts 63°
2026-04-30 09:42 52.17159 20.96798 352 ft 9 kts 75°
2026-04-30 09:43 52.17183 20.96891 353 ft 9 kts 64°
2026-04-30 09:43 52.17202 20.96957 351 ft 2 kts 63°
2026-04-30 09:43 52.17205 20.96965 351 ft 0 kts 63°